Date String (YYYY-MM-DD hh:mm:ss) UTC,Instrument flags,absolute air pressure of the measurement (hPa),sample flow rate (lpm),inlet stack bypass flow (lpm),air temperature of the measurement (°C),ambient temperature measured by the external sensor (°C),aerosol sample conditioner tube jacket temperature (°C),OPC LED temperature (°C),internal box temperature (°C),relative humidity of the measurement (%),span deviation,mass concentration of particles derived from Lorenz-Mie calculation of OPC scattering (μg/m³),mass concentration of particles derived from Lorenz-Mie calculation of OPC scattering (μg/m³),mass concentration of particles derived from Lorenz-Mie calculation of OPC scattering (μg/m³)
DateTimeUTC,F1_M11,P_M11,Q1_M11,Q2_M11,T1_M11,T2_M11,T3_M11,T4_M11,T5_M11,U1_M11,ZSPAN_M11,X0_M11,X2_M11,X1_M11
2023-09-28 19:00:00,SystemResetWarning,0827.2,5.00,000.00,028.1,026.7,000.0,036.5,029.9,13.0,0000.0,0013.65,0005.42,0004.81
2023-09-28 19:01:00,SystemResetWarning,0827.3,4.99,000.00,028.1,027.0,000.0,036.5,030.0,12.1,0000.0,0013.57,0005.41,0004.80
2023-09-28 19:02:00,SystemResetWarning,0827.2,5.00,000.00,028.2,026.4,000.0,036.5,030.0,12.0,0000.0,0012.80,0005.41,0004.78
2023-09-28 19:03:00,SystemResetWarning,0827.2,5.00,000.00,028.1,024.9,000.0,036.4,029.8,11.6,0000.0,0012.05,0005.39,0004.77
2023-09-28 19:04:00,SystemResetWarning,0827.2,5.00,000.00,028.1,024.6,000.0,036.4,029.7,11.4,0000.0,0011.66,0005.37,0004.76
2023-09-28 19:05:00,SystemResetWarning,0827.1,5.02,000.00,028.0,024.9,000.0,036.4,029.6,11.8,0000.0,0010.62,0005.32,0004.74
2023-09-28 19:06:00,SystemResetWarning,0827.1,5.00,000.00,028.0,025.3,000.0,036.4,029.6,12.4,0000.0,0010.03,0005.29,0004.72
2023-09-28 19:07:00,SystemResetWarning,0827.1,5.00,000.00,028.0,025.8,000.0,036.4,029.7,11.9,0000.0,0009.89,0005.25,0004.72
2023-09-28 19:08:00,SystemResetWarning,0827.1,5.00,000.00,028.0,026.2,000.0,036.4,029.8,12.2,0001.2,0009.79,0005.20,0004.69
2023-09-28 19:09:00,SystemResetWarning,0827.2,4.99,000.00,028.1,026.5,000.0,036.4,029.9,11.9,0000.0,0009.67,0005.16,0004.67
2023-09-28 19:10:00,SystemResetWarning,0827.1,5.00,000.00,028.1,026.8,000.0,036.5,030.0,11.5,0000.0,0009.79,0005.11,0004.65
2023-09-28 19:11:00,SystemResetWarning,0827.2,4.99,000.00,028.1,026.3,000.0,036.4,030.0,11.6,0000.0,0009.88,0005.07,0004.64
2023-09-28 19:12:00,SystemResetWarning,0827.1,5.01,000.00,028.1,024.7,000.0,036.4,029.8,11.5,0000.0,0010.40,0005.03,0004.62
2023-09-28 19:13:00,SystemResetWarning,0827.1,5.01,000.00,028.0,024.5,000.0,036.3,029.7,11.6,0002.5,0010.63,0005.02,0004.62
2023-09-28 19:14:00,SystemResetWarning,0827.1,5.01,000.00,028.0,024.8,000.0,036.3,029.6,12.1,0004.1,0011.46,0005.04,0004.62
2023-09-28 19:15:00,SystemResetWarning,0827.1,5.00,000.00,027.9,025.2,000.0,036.4,029.6,12.1,0004.1,0011.44,0005.04,0004.60
2023-09-28 19:16:00,SystemResetWarning,0827.1,5.00,000.00,028.0,025.7,000.0,036.4,029.7,12.2,0004.1,0011.62,0005.04,0004.59
2023-09-28 19:17:00,SystemResetWarning,0827.0,5.00,000.00,028.0,026.1,000.0,036.4,029.7,12.4,0003.8,0011.51,0005.03,0004.59
2023-09-28 19:18:00,SystemResetWarning,0827.0,4.99,000.00,028.0,026.5,000.0,036.4,029.8,12.1,0002.3,0011.48,0005.02,0004.58
2023-09-28 19:19:00,SystemResetWarning,0827.0,5.00,000.00,028.1,026.8,000.0,036.4,029.9,12.0,0000.0,0012.00,0005.00,0004.56
2023-09-28 19:20:00,SystemResetWarning,0827.1,5.00,000.00,028.1,027.0,000.0,036.4,030.0,12.6,0000.0,0012.40,0004.99,0004.55
2023-09-28 19:21:00,SystemResetWarning,0827.0,4.98,000.00,028.1,025.8,000.0,036.4,029.9,12.2,0000.0,0012.08,0005.00,0004.55
2023-09-28 19:22:00,SystemResetWarning,0826.9,5.01,000.00,028.1,024.5,000.0,036.4,029.7,11.7,0000.0,0012.03,0005.01,0004.56
2023-09-28 19:23:00,SystemResetWarning,0827.0,5.01,000.00,028.0,024.6,000.0,036.3,029.7,11.8,0000.0,0011.84,0005.04,0004.55
2023-09-28 19:24:00,SystemResetWarning,0826.9,4.99,000.00,028.0,025.0,000.0,036.3,029.6,12.0,0000.0,0011.59,0005.06,0004.56
2023-09-28 19:25:00,SystemResetWarning,0826.9,5.00,000.00,027.9,025.4,000.0,036.3,029.6,12.1,0000.0,0011.01,0005.04,0004.54
2023-09-28 19:26:00,SystemResetWarning,0826.9,5.00,000.00,028.0,025.8,000.0,036.4,029.7,11.9,0000.0,0010.41,0005.03,0004.53
2023-09-28 19:27:00,SystemResetWarning,0826.9,5.01,000.00,028.0,026.2,000.0,036.4,029.8,12.3,0000.0,0010.90,0005.00,0004.53
2023-09-28 19:28:00,SystemResetWarning,0826.9,5.01,000.00,028.0,026.6,000.0,036.4,029.9,12.1,0000.0,0011.67,0005.03,0004.51
2023-09-28 19:29:00,SystemResetWarning,0826.9,4.99,000.00,028.1,026.8,000.0,036.4,030.0,11.7,0000.0,0012.04,0005.04,0004.49
2023-09-28 19:30:00,SystemResetWarning,0826.8,4.98,000.00,028.1,025.7,000.0,036.4,029.9,12.1,0000.0,0011.92,0005.05,0004.48
2023-09-28 19:31:00,SystemResetWarning,0826.8,5.02,000.00,028.0,024.4,000.0,036.3,029.7,12.4,0000.0,0012.19,0005.08,0004.48
2023-09-28 19:32:00,SystemResetWarning,0826.8,5.01,000.00,028.0,024.6,000.0,036.3,029.6,11.9,0000.0,0012.69,0005.13,0004.48
2023-09-28 19:33:00,SystemResetWarning,0826.8,4.99,000.00,027.9,024.9,000.0,036.3,029.5,11.8,0000.0,0012.45,0005.14,0004.46
2023-09-28 19:34:00,SystemResetWarning,0826.8,5.01,000.00,027.9,025.4,000.0,036.3,029.6,11.8,0000.0,0012.17,0005.14,0004.45
2023-09-28 19:35:00,SystemResetWarning,0826.8,5.01,000.00,027.9,025.8,000.0,036.3,029.7,11.7,0000.0,0012.70,0005.13,0004.45
2023-09-28 19:36:00,SystemResetWarning,0826.8,5.00,000.00,028.0,026.2,000.0,036.4,029.8,11.9,0000.0,0013.02,0005.13,0004.44
2023-09-28 19:37:00,SystemResetWarning,0826.8,5.00,000.00,028.0,026.6,000.0,036.4,029.9,11.8,0000.0,0012.80,0005.10,0004.42
2023-09-28 19:38:00,SystemResetWarning,0826.8,5.00,000.00,028.1,026.9,000.0,036.4,030.0,12.3,0000.0,0012.05,0005.09,0004.41
2023-09-28 19:39:00,SystemResetWarning,0826.8,5.00,000.00,028.1,026.8,000.0,036.4,030.0,11.6,0000.0,0011.78,0005.09,0004.42
2023-09-28 19:40:00,SystemResetWarning,0826.7,4.98,000.00,028.1,025.3,000.0,036.4,029.9,11.6,0000.0,0011.47,0005.08,0004.41
2023-09-28 19:41:00,SystemResetWarning,0826.6,5.02,000.00,028.0,024.6,000.0,036.3,029.7,11.8,0000.0,0011.63,0005.10,0004.41
2023-09-28 19:42:00,SystemResetWarning,0826.6,5.00,000.00,028.0,024.8,000.0,036.3,029.6,11.4,0000.0,0011.60,0005.10,0004.41
2023-09-28 19:43:00,SystemResetWarning,0826.6,5.00,000.00,027.9,025.2,000.0,036.3,029.5,11.6,0000.0,0011.86,0005.11,0004.41
2023-09-28 19:44:00,SystemResetWarning,0826.6,5.01,000.00,027.9,025.6,000.0,036.3,029.6,11.8,0000.0,0011.85,0005.11,0004.42
2023-09-28 19:45:00,SystemResetWarning,0826.6,5.00,000.00,028.0,026.0,000.0,036.4,029.7,11.7,0000.0,0011.82,0005.10,0004.42
2023-09-28 19:46:00,SystemResetWarning,0826.6,4.99,000.00,028.0,026.4,000.0,036.4,029.8,11.5,0000.0,0011.40,0005.08,0004.41
2023-09-28 19:47:00,SystemResetWarning,0826.6,4.99,000.00,028.1,026.7,000.0,036.4,029.9,12.1,0000.0,0011.02,0005.06,0004.42
2023-09-28 19:48:00,SystemResetWarning,0826.6,4.99,000.00,028.1,026.7,000.0,036.4,030.0,11.8,0000.0,0011.03,0005.10,0004.45
2023-09-28 19:49:00,SystemResetWarning,0826.5,5.00,000.00,028.1,025.2,000.0,036.4,029.8,11.9,0000.0,0011.70,0005.16,0004.47
2023-09-28 19:50:00,SystemResetWarning,0826.4,5.00,000.00,028.0,024.4,000.0,036.3,029.7,11.6,0001.5,0011.71,0005.17,0004.47
2023-09-28 19:51:00,SystemResetWarning,0826.5,5.01,000.00,028.0,024.6,000.0,036.3,029.6,12.0,0001.5,0011.58,0005.18,0004.49
2023-09-28 19:52:00,SystemResetWarning,0826.4,5.01,000.00,027.9,025.0,000.0,036.3,029.6,11.5,0000.0,0011.31,0005.17,0004.51
2023-09-28 19:53:00,SystemResetWarning,0826.4,5.00,000.00,027.9,025.5,000.0,036.3,029.6,11.9,0000.0,0010.98,0005.17,0004.53
2023-09-28 19:54:00,SystemResetWarning,0826.4,5.00,000.00,028.0,025.9,000.0,036.3,029.7,12.1,0000.0,0010.64,0005.15,0004.53
2023-09-28 19:55:00,SystemResetWarning,0826.4,5.00,000.00,028.0,026.3,000.0,036.4,029.8,11.5,0000.0,0011.18,0005.16,0004.53
2023-09-28 19:56:00,SystemResetWarning,0826.4,5.00,000.00,028.0,026.7,000.0,036.4,029.9,12.2,0000.0,0011.23,0005.16,0004.53
2023-09-28 19:57:00,SystemResetWarning,0826.4,5.00,000.00,028.1,027.0,000.0,036.4,030.0,12.4,0000.0,0011.75,0005.21,0004.55
2023-09-28 19:58:00,SystemResetWarning,0826.4,4.98,000.00,028.1,026.4,000.0,036.4,030.0,12.6,0000.0,0012.72,0005.25,0004.56
2023-09-28 19:59:00,SystemResetWarning,0826.4,5.00,000.00,028.1,024.8,000.0,036.3,029.7,12.4,0000.0,0013.65,0005.30,0004.56
